Location: ??????????
(31.2156°N, 29.9553°E)
Time: 04:10:53
(UTC+00:00)

H-2A R/B - Pass Details

Date: 03 March 2021
Orbit: 732 x 837 km, 98.2° (Epoch: 14 April)

Event Time Altitude Azimuth Distance (km) Brightness Sun altitude
Rises 16:16:08 0° 149° (SSE) 3,349 5.0 -4.3°
Reaches altitude 10° 16:18:34 10° 142° (SE) 2,428 4.3 -4.8°
Maximum altitude 16:23:38 42° 73° (ENE) 1,174 2.6 -5.9°
Drops below altitude 10° 16:28:44 10° 3° (N) 2,454 4.6 -7.0°
Sets 16:31:12 0° 357° (N) 3,388 5.3 -7.5°
